RNA254 OTHH-VNKT

Flight info

Callsign RNA254
Flight time N/A
Altitude 35000
Route KUPRO2E KUPRO N300 NOLSU P307 TONVO/N0471F390 A777 BUBAS/N0467F410 A777 NADSO B524 ALPOR M504 TELEM A791 SASRO J62 JJP J20 LKN G598 SMR SMR
Aircraft A332/H-SDE3GHIJ2J3J5M1RVWXY/LB2D1

Departure

Time 2026-05-08 07:29
Airport Hamad International Airport (OTHH)

Arrival

Time N/A
Airport Tribhuvan International Airport (VNKT)
Time Latitude Longitude Altitude Speed Heading
2026-05-08 07:22 25.25913 51.61109 34 ft 4 kts 234°
2026-05-08 07:22 25.25895 51.61094 33 ft 4 kts 208°
2026-05-08 07:23 25.25873 51.61080 34 ft 4 kts 223°
2026-05-08 07:23 25.25863 51.61058 34 ft 1 kts 248°
2026-05-08 07:26 25.25856 51.61042 34 ft 7 kts 246°
2026-05-08 07:26 25.25829 51.60969 34 ft 13 kts 248°
2026-05-08 07:26 25.25794 51.60872 34 ft 15 kts 248°
2026-05-08 07:26 25.25755 51.60760 33 ft 17 kts 249°
2026-05-08 07:27 25.25712 51.60648 33 ft 9 kts 248°
2026-05-08 07:27 25.25686 51.60570 31 ft 12 kts 263°
2026-05-08 07:27 25.25719 51.60478 30 ft 13 kts 310°
2026-05-08 07:27 25.25770 51.60440 31 ft 0 kts 338°
2026-05-08 07:28 25.25865 51.60399 32 ft 43 kts 339°
2026-05-08 07:28 25.26363 51.60178 31 ft 109 kts 338°
2026-05-08 07:29 25.27255 51.59777 50 ft 165 kts 339°
2026-05-08 07:29 25.28380 51.59259 621 ft 182 kts 341°
2026-05-08 07:29 25.29563 51.58745 1606 ft 184 kts 342°
2026-05-08 07:29 25.30771 51.58204 2366 ft 191 kts 341°
2026-05-08 07:30 25.32046 51.57650 2966 ft 205 kts 342°
2026-05-08 07:30 25.33422 51.57027 3543 ft 222 kts 340°
2026-05-08 07:30 25.34896 51.56353 4131 ft 237 kts 341°
2026-05-08 07:30 25.36464 51.55672 4793 ft 247 kts 342°
2026-05-08 07:31 25.38101 51.54992 5532 ft 257 kts 340°
2026-05-08 07:31 25.39812 51.54271 6120 ft 270 kts 338°
2026-05-08 07:31 25.41596 51.53489 6694 ft 282 kts 338°
2026-05-08 07:31 25.43443 51.52662 7361 ft 291 kts 337°
2026-05-08 07:32 25.45325 51.51800 8192 ft 294 kts 336°
2026-05-08 07:32 25.47047 51.50633 9210 ft 289 kts 313°
2026-05-08 07:32 25.48130 51.48778 10096 ft 290 kts 288°
2026-05-08 07:32 25.48402 51.46561 10764 ft 296 kts 267°
2026-05-08 07:33 25.48315 51.44263 11534 ft 301 kts 265°
2026-05-08 07:33 25.48194 51.41929 12331 ft 306 kts 263°
2026-05-08 07:33 25.48072 51.39564 13134 ft 310 kts 264°
2026-05-08 07:33 25.47957 51.37168 13910 ft 314 kts 263°
2026-05-08 07:34 25.47845 51.34771 14630 ft 317 kts 263°
2026-05-08 07:34 25.47733 51.32321 15370 ft 321 kts 263°
2026-05-08 07:34 25.47536 51.29859 16096 ft 322 kts 256°
2026-05-08 07:34 25.46703 51.27597 16863 ft 317 kts 232°
2026-05-08 07:35 25.45101 51.25963 17514 ft 318 kts 207°
2026-05-08 07:35 25.42964 51.25236 17833 ft 331 kts 185°
2026-05-08 07:35 25.40606 51.25179 18130 ft 347 kts 179°
2026-05-08 07:35 25.38134 51.25252 18396 ft 363 kts 178°
2026-05-08 07:36 25.35563 51.25328 18631 ft 377 kts 179°
2026-05-08 07:36 25.32899 51.25389 18979 ft 387 kts 179°
2026-05-08 07:36 25.30191 51.25440 19434 ft 392 kts 179°
2026-05-08 07:36 25.27455 51.25660 19959 ft 397 kts 172°
2026-05-08 07:37 25.24767 51.26434 20448 ft 403 kts 163°
2026-05-08 07:37 25.22121 51.27509 20952 ft 407 kts 161°
2026-05-08 07:37 25.19465 51.28644 21439 ft 411 kts 161°
2026-05-08 07:37 25.16784 51.29791 21923 ft 416 kts 161°
2026-05-08 07:38 25.14071 51.30945 22397 ft 420 kts 161°
2026-05-08 07:38 25.11335 51.32104 22885 ft 423 kts 161°
2026-05-08 07:38 25.08571 51.33274 23363 ft 427 kts 162°
2026-05-08 07:38 25.05786 51.34447 23778 ft 430 kts 162°
2026-05-08 07:39 25.02979 51.35628 24204 ft 432 kts 162°
2026-05-08 07:39 25.00162 51.36813 24657 ft 434 kts 162°
2026-05-08 07:39 24.97332 51.38003 25069 ft 437 kts 162°
2026-05-08 07:39 24.94488 51.39211 25476 ft 440 kts 161°
2026-05-08 07:40 24.91755 51.40773 25889 ft 447 kts 152°
2026-05-08 07:40 24.89164 51.42703 26302 ft 452 kts 149°
2026-05-08 07:40 24.86595 51.44718 26697 ft 454 kts 148°
2026-05-08 07:40 24.84021 51.46749 27102 ft 457 kts 148°
2026-05-08 07:41 24.81526 51.48953 27479 ft 464 kts 141°
2026-05-08 07:41 24.79356 51.51556 27843 ft 473 kts 131°
2026-05-08 07:41 24.77593 51.54640 28215 ft 482 kts 121°
2026-05-08 07:41 24.76360 51.58110 28589 ft 492 kts 109°
2026-05-08 07:42 24.75741 51.61851 28915 ft 502 kts 98°
2026-05-08 07:42 24.75794 51.65714 29259 ft 511 kts 86°
2026-05-08 07:42 24.76551 51.69560 29588 ft 519 kts 73°
2026-05-08 07:42 24.77825 51.73291 29924 ft 523 kts 69°
2026-05-08 07:43 24.79296 51.76967 30194 ft 527 kts 67°
2026-05-08 07:43 24.80864 51.80622 30477 ft 530 kts 66°
2026-05-08 07:43 24.82464 51.84279 30807 ft 531 kts 66°
2026-05-08 07:43 24.84061 51.87941 31165 ft 531 kts 66°
2026-05-08 07:44 24.85642 51.91614 31565 ft 530 kts 66°
2026-05-08 07:44 24.87200 51.95283 31959 ft 529 kts 67°
2026-05-08 07:44 24.88747 51.98963 32336 ft 529 kts 67°
2026-05-08 07:44 24.90285 52.02647 32736 ft 529 kts 67°
2026-05-08 07:45 24.91817 52.06327 33137 ft 528 kts 67°
2026-05-08 07:45 24.93345 52.10007 33556 ft 528 kts 68°
2026-05-08 07:45 24.94870 52.13680 33927 ft 527 kts 68°
2026-05-08 07:45 24.96396 52.17356 34257 ft 527 kts 68°
2026-05-08 07:46 24.97918 52.21026 34613 ft 526 kts 68°
2026-05-08 07:46 24.99436 52.24687 34972 ft 525 kts 68°
2026-05-08 07:46 25.00951 52.28342 35338 ft 524 kts 68°
2026-05-08 07:46 25.02462 52.31990 35676 ft 523 kts 68°
2026-05-08 07:47 25.03972 52.35642 35840 ft 523 kts 68°
2026-05-08 07:47 25.06980 52.42920 35855 ft 520 kts 68°
2026-05-08 07:48 25.09925 52.50205 35854 ft 519 kts 72°
2026-05-08 07:48 25.11351 52.57889 35855 ft 508 kts 93°
2026-05-08 07:48 25.11129 52.61745 35857 ft 500 kts 104°
2026-05-08 07:49 25.10274 52.65425 35856 ft 492 kts 115°
2026-05-08 07:49 25.07485 52.72266 35857 ft 488 kts 121°
2026-05-08 07:50 25.05015 52.79237 35851 ft 496 kts 111°
2026-05-08 07:50 25.03170 52.86578 35855 ft 497 kts 109°
2026-05-08 07:51 25.01492 52.93976 35860 ft 498 kts 108°
2026-05-08 07:51 24.99838 53.01383 35853 ft 497 kts 108°
2026-05-08 07:52 24.98165 53.08779 35856 ft 497 kts 108°
2026-05-08 07:52 24.96468 53.16173 35850 ft 497 kts 108°
2026-05-08 07:53 24.94764 53.23558 35851 ft 497 kts 108°
2026-05-08 07:53 24.93057 53.30942 35860 ft 497 kts 108°
2026-05-08 07:54 24.91350 53.38315 35848 ft 496 kts 108°
2026-05-08 07:54 24.89545 53.45642 35836 ft 495 kts 110°
2026-05-08 07:55 24.87555 53.52885 35837 ft 494 kts 111°
2026-05-08 07:55 24.85534 53.60130 35832 ft 494 kts 111°
2026-05-08 07:56 24.83531 53.67367 35834 ft 495 kts 111°
2026-05-08 07:56 24.81538 53.74610 35839 ft 495 kts 110°
2026-05-08 07:57 24.79546 53.81852 35828 ft 494 kts 110°
2026-05-08 07:57 24.77892 53.87853 35829 ft 493 kts 110°
2026-05-08 07:58 24.76014 53.95114 35831 ft 496 kts 104°
2026-05-08 07:58 24.75759 54.02719 35831 ft 504 kts 84°
2026-05-08 07:59 24.77453 54.10243 35826 ft 508 kts 75°
2026-05-08 07:59 24.79591 54.17665 35830 ft 509 kts 74°
2026-05-08 08:00 24.81779 54.25085 35822 ft 509 kts 74°
2026-05-08 08:00 24.83924 54.32513 35831 ft 509 kts 74°
2026-05-08 08:01 24.86035 54.39945 35836 ft 509 kts 75°
2026-05-08 08:01 24.88137 54.47388 35834 ft 509 kts 75°
2026-05-08 08:02 24.90235 54.54826 35830 ft 508 kts 75°
2026-05-08 08:02 24.92328 54.62258 35860 ft 508 kts 75°
2026-05-08 08:02 24.93233 54.66018 36090 ft 508 kts 79°
2026-05-08 08:03 24.94012 54.69812 36414 ft 507 kts 79°
2026-05-08 08:03 24.94757 54.73606 36765 ft 506 kts 80°
2026-05-08 08:03 24.95480 54.77400 37096 ft 506 kts 80°
2026-05-08 08:03 24.96193 54.81191 37421 ft 505 kts 80°
2026-05-08 08:04 24.96892 54.84927 37740 ft 504 kts 80°
2026-05-08 08:04 24.97600 54.88710 38058 ft 504 kts 80°
2026-05-08 08:04 24.98309 54.92489 38367 ft 503 kts 80°
2026-05-08 08:04 24.99018 54.96262 38653 ft 502 kts 80°
2026-05-08 08:05 24.99727 55.00036 38804 ft 504 kts 80°
2026-05-08 08:05 25.01142 55.07575 38828 ft 503 kts 80°
2026-05-08 08:06 25.02561 55.15146 38826 ft 503 kts 80°
2026-05-08 08:06 25.03972 55.22698 38828 ft 503 kts 80°
2026-05-08 08:07 25.05384 55.30249 38825 ft 503 kts 80°
2026-05-08 08:07 25.06793 55.37803 38827 ft 503 kts 80°
2026-05-08 08:08 25.08198 55.45362 38829 ft 503 kts 80°
2026-05-08 08:08 25.09598 55.52917 38828 ft 503 kts 80°
2026-05-08 08:09 25.10992 55.60471 38823 ft 503 kts 80°
2026-05-08 08:09 25.12381 55.68032 38820 ft 503 kts 80°
2026-05-08 08:10 25.13765 55.75590 38821 ft 503 kts 80°
2026-05-08 08:10 25.15246 55.83133 38815 ft 503 kts 79°
2026-05-08 08:11 25.16800 55.90615 38815 ft 502 kts 79°
2026-05-08 08:11 25.18357 55.98126 38812 ft 502 kts 79°
2026-05-08 08:12 25.19899 56.05650 38802 ft 502 kts 79°
2026-05-08 08:12 25.20423 56.13265 38797 ft 496 kts 98°
2026-05-08 08:13 25.18898 56.20547 38797 ft 489 kts 111°
2026-05-08 08:13 25.16688 56.27638 38802 ft 488 kts 113°
2026-05-08 08:14 25.14366 56.34681 38800 ft 488 kts 113°
2026-05-08 08:14 25.12065 56.41726 38801 ft 488 kts 112°
2026-05-08 08:15 25.09787 56.48787 38798 ft 488 kts 112°
2026-05-08 08:15 25.07864 56.55982 38795 ft 491 kts 106°
2026-05-08 08:16 25.06391 56.63342 38791 ft 492 kts 104°
2026-05-08 08:16 25.04998 56.70722 38791 ft 491 kts 104°
2026-05-08 08:17 25.03610 56.78087 38793 ft 491 kts 104°
2026-05-08 08:17 25.02206 56.85448 38791 ft 491 kts 104°
2026-05-08 08:18 25.00791 56.92809 38797 ft 491 kts 104°
2026-05-08 08:18 24.99372 57.00165 38799 ft 491 kts 104°
2026-05-08 08:19 24.97949 57.07521 38803 ft 491 kts 104°
2026-05-08 08:19 24.96522 57.14881 38799 ft 491 kts 104°
2026-05-08 08:20 24.95091 57.22238 38799 ft 491 kts 104°
2026-05-08 08:20 24.93657 57.29596 38798 ft 490 kts 104°
2026-05-08 08:21 24.92223 57.36933 38795 ft 490 kts 104°
2026-05-08 08:21 24.90784 57.44272 38797 ft 490 kts 104°
2026-05-08 08:22 24.89341 57.51611 38798 ft 490 kts 104°
2026-05-08 08:22 24.87903 57.58905 38794 ft 490 kts 104°
2026-05-08 08:23 24.86454 57.66237 38795 ft 490 kts 104°
2026-05-08 08:23 24.84999 57.73580 38790 ft 491 kts 104°
2026-05-08 08:24 24.83538 57.80933 38787 ft 492 kts 104°
2026-05-08 08:24 24.82061 57.88280 38788 ft 491 kts 105°
2026-05-08 08:25 24.80572 57.95608 38784 ft 490 kts 105°
2026-05-08 08:25 24.79077 58.02941 38785 ft 491 kts 105°
2026-05-08 08:26 24.77580 58.10273 38786 ft 491 kts 105°
2026-05-08 08:26 24.76080 58.17606 38782 ft 491 kts 105°
2026-05-08 08:27 24.74576 58.24943 38782 ft 492 kts 105°
2026-05-08 08:27 24.73067 58.32284 38779 ft 492 kts 105°
2026-05-08 08:28 24.71553 58.39627 38779 ft 492 kts 105°
2026-05-08 08:28 24.70035 58.46969 38779 ft 492 kts 105°
2026-05-08 08:29 24.68513 58.54318 38774 ft 493 kts 105°
2026-05-08 08:29 24.66985 58.61671 38772 ft 494 kts 105°
2026-05-08 08:30 24.65453 58.69027 38772 ft 494 kts 105°
2026-05-08 08:30 24.63148 58.80056 38768 ft 494 kts 105°
2026-05-08 08:31 24.61617 58.87360 38764 ft 493 kts 105°
2026-05-08 08:31 24.60073 58.94705 38764 ft 493 kts 105°
2026-05-08 08:32 24.58525 59.02050 38763 ft 493 kts 105°
2026-05-08 08:32 24.56975 59.09389 38765 ft 493 kts 105°
2026-05-08 08:33 24.55421 59.16728 38758 ft 493 kts 105°
2026-05-08 08:33 24.53865 59.24057 38762 ft 493 kts 105°
2026-05-08 08:34 24.52305 59.31380 38763 ft 493 kts 105°
2026-05-08 08:34 24.50740 59.38707 38750 ft 493 kts 105°
2026-05-08 08:35 24.49171 59.46035 38755 ft 493 kts 105°
2026-05-08 08:35 24.47598 59.53367 38754 ft 493 kts 105°
2026-05-08 08:36 24.46022 59.60690 38752 ft 493 kts 105°
2026-05-08 08:36 24.44441 59.68018 38752 ft 494 kts 105°
2026-05-08 08:37 24.42857 59.75345 38752 ft 493 kts 105°
2026-05-08 08:37 24.41274 59.82650 38753 ft 492 kts 105°
2026-05-08 08:38 24.39686 59.89957 38750 ft 492 kts 105°
2026-05-08 08:38 24.38094 59.97267 38747 ft 493 kts 105°
2026-05-08 08:39 24.36497 60.04578 38750 ft 493 kts 105°
2026-05-08 08:39 24.34897 60.11888 38744 ft 493 kts 105°
2026-05-08 08:40 24.33296 60.19191 38751 ft 493 kts 105°
2026-05-08 08:40 24.31690 60.26500 38750 ft 493 kts 105°
2026-05-08 08:41 24.30079 60.33814 38742 ft 493 kts 105°
2026-05-08 08:41 24.28469 60.41105 38752 ft 492 kts 105°
2026-05-08 08:42 24.26856 60.48390 38753 ft 492 kts 105°
2026-05-08 08:42 24.25240 60.55673 38748 ft 492 kts 105°
2026-05-08 08:43 24.23621 60.62951 38758 ft 492 kts 105°
2026-05-08 08:43 24.21999 60.70229 38758 ft 492 kts 105°
2026-05-08 08:44 24.20373 60.77508 38756 ft 492 kts 105°
2026-05-08 08:44 24.19021 60.83558 38762 ft 492 kts 105°
2026-05-08 08:45 24.17392 60.90838 38753 ft 492 kts 105°
2026-05-08 08:45 24.15759 60.98119 38760 ft 492 kts 105°
2026-05-08 08:46 24.14124 61.05390 38757 ft 491 kts 105°